• In Kazakhstan
  • List of Countries
  • For 7 days
  • Water Temperature
  • Satellite Maps
  • Weather Map
  • News
  • Weather Widgets
  • user-avatar
    Login

    Hourly Weather Baloda Bazar

    Today, 25 September, Monday

    Time Temperature Precipitation Wind Pressure Humidity
    00:00 +28°C° 0 mm 1 mps 734 mmHg 72%
    01:00 +28°C° 0 mm 1 mps 734 mmHg 74%
    02:00 +27°C° 0 mm 1 mps 733 mmHg 76%
    03:00 +27°C° 0 mm 1 mps 734 mmHg 78%
    04:00 +27°C° 0 mm 1 mps 734 mmHg 79%
    05:00 +26°C° 0 mm 1 mps 734 mmHg 82%
    06:00 +28°C° 0 mm 1 mps 734 mmHg 77%
    07:00 +29°C° 0 mm 1 mps 734 mmHg 73%
    08:00 +31°C° 0 mm 1 mps 735 mmHg 69%
    09:00 +32°C° 0 mm 1 mps 734 mmHg 62%
    10:00 +35°C° 0 mm 2 mps 734 mmHg 56%
    11:00 +37°C° 0 mm 2 mps 734 mmHg 47%
    12:00 +37°C° 0 mm 2 mps 733 mmHg 45%
    13:00 +38°C° 0 mm 2 mps 733 mmHg 43%
    14:00 +38°C° 0 mm 2 mps 732 mmHg 41%
    15:00 +37°C° 0 mm 2 mps 732 mmHg 46%
    16:00 +35°C° 0 mm 2 mps 732 mmHg 51%
    17:00 +33°C° 0 mm 1 mps 732 mmHg 56%
    18:00 +32°C° 0 mm 2 mps 732 mmHg 58%
    19:00 +31°C° 0 mm 2 mps 733 mmHg 59%
    20:00 +30°C° 0 mm 2 mps 733 mmHg 60%
    21:00 +30°C° 0 mm 2 mps 733 mmHg 62%
    22:00 +29°C° 0 mm 2 mps 733 mmHg 64%
    23:00 +28°C° 0 mm 2 mps 734 mmHg 66%

    Tomorrow, 26 September, Tuesday

    Time Temperature Precipitation Wind Pressure Humidity
    00:00 +28°C° 0 mm 2 mps 733 mmHg 67%
    01:00 +28°C° 0 mm 2 mps 733 mmHg 68%
    02:00 +27°C° 0 mm 1 mps 733 mmHg 69%
    03:00 +27°C° 0 mm 1 mps 733 mmHg 70%
    04:00 +26°C° 0 mm 1 mps 733 mmHg 71%
    05:00 +26°C° 0 mm 1 mps 733 mmHg 72%
    06:00 +28°C° 0 mm 1 mps 734 mmHg 69%
    07:00 +29°C° 0 mm 1 mps 734 mmHg 66%
    08:00 +31°C° 0 mm 1 mps 735 mmHg 62%
    09:00 +32°C° 0 mm 2 mps 735 mmHg 57%
    10:00 +35°C° 0 mm 2 mps 734 mmHg 52%
    11:00 +36°C° 0 mm 2 mps 734 mmHg 46%
    12:00 +37°C° 0 mm 3 mps 734 mmHg 44%
    13:00 +37°C° 0 mm 3 mps 733 mmHg 43%
    14:00 +37°C° 0 mm 3 mps 732 mmHg 41%
    15:00 +36°C° 0 mm 2 mps 732 mmHg 46%
    16:00 +35°C° 0 mm 2 mps 732 mmHg 51%
    17:00 +34°C° 0 mm 2 mps 732 mmHg 57%
    18:00 +32°C° 0 mm 2 mps 733 mmHg 58%
    19:00 +31°C° 0 mm 2 mps 733 mmHg 59%
    20:00 +30°C° 0 mm 2 mps 734 mmHg 60%
    21:00 +29°C° 0 mm 2 mps 734 mmHg 62%
    22:00 +29°C° 0 mm 2 mps 734 mmHg 64%
    23:00 +28°C° 0 mm 2 mps 734 mmHg 66%

    Day after tomorrow, 27 September, Wednesday

    Time Temperature Precipitation Wind Pressure Humidity
    00:00 +28°C° 0 mm 2 mps 734 mmHg 67%
    01:00 +28°C° 0 mm 2 mps 733 mmHg 69%
    02:00 +28°C° 0 mm 2 mps 733 mmHg 70%
    03:00 +27°C° 0 mm 1 mps 733 mmHg 71%
    04:00 +27°C° 0 mm 1 mps 733 mmHg 72%
    05:00 +27°C° 0 mm 1 mps 733 mmHg 73%
    06:00 +28°C° 0 mm 1 mps 734 mmHg 69%
    07:00 +30°C° 0 mm 1 mps 735 mmHg 66%
    08:00 +31°C° 0 mm 1 mps 735 mmHg 62%
    09:00 +34°C° 0 mm 2 mps 735 mmHg 56%
    10:00 +35°C° 0 mm 2 mps 735 mmHg 51%
    11:00 +37°C° 0 mm 2 mps 735 mmHg 46%
    12:00 +37°C° 0 mm 2 mps 734 mmHg 44%
    13:00 +37°C° 0 mm 2 mps 733 mmHg 42%
    14:00 +38°C° 0 mm 2 mps 732 mmHg 41%
    15:00 +36°C° 0 mm 2 mps 732 mmHg 46%
    16:00 +35°C° 0 mm 2 mps 732 mmHg 51%
    17:00 +32°C° 0 mm 1 mps 732 mmHg 56%
    18:00 +32°C° 0 mm 1 mps 733 mmHg 56%
    19:00 +31°C° 0 mm 2 mps 733 mmHg 57%
    20:00 +30°C° 0 mm 2 mps 734 mmHg 57%
    21:00 +30°C° 0 mm 2 mps 734 mmHg 58%
    22:00 +29°C° 0 mm 2 mps 734 mmHg 60%
    23:00 +29°C° 0 mm 1 mps 733 mmHg 61%

    28 September, Thursday

    Time Temperature Precipitation Wind Pressure Humidity
    00:00 +28°C° 0 mm 1 mps 733 mmHg 63%
    01:00 +28°C° 0 mm 1 mps 732 mmHg 64%
    02:00 +28°C° 0 mm 1 mps 732 mmHg 65%
    03:00 +27°C° 0 mm 1 mps 732 mmHg 67%
    04:00 +27°C° 0 mm 1 mps 732 mmHg 68%
    05:00 +27°C° 0 mm 1 mps 732 mmHg 69%
    06:00 +28°C° 0 mm 1 mps 733 mmHg 66%
    07:00 +30°C° 0 mm 1 mps 734 mmHg 63%
    08:00 +31°C° 0 mm 1 mps 734 mmHg 61%
    09:00 +33°C° 0 mm 1 mps 734 mmHg 56%
    10:00 +34°C° 0 mm 1 mps 734 mmHg 51%
    11:00 +36°C° 0 mm 1 mps 733 mmHg 46%
    12:00 +36°C° 0 mm 1 mps 733 mmHg 44%
    13:00 +36°C° 0 mm 1 mps 732 mmHg 41%
    14:00 +37°C° 0 mm 1 mps 731 mmHg 39%
    15:00 +36°C° 0 mm 1 mps 731 mmHg 44%
    16:00 +34°C° 0 mm 1 mps 731 mmHg 49%
    17:00 +33°C° 0 mm 1 mps 731 mmHg 54%
    18:00 +32°C° 0 mm 1 mps 732 mmHg 55%
    19:00 +31°C° 0 mm 1 mps 733 mmHg 56%
    20:00 +30°C° 0 mm 1 mps 733 mmHg 57%
    21:00 +30°C° 0 mm 1 mps 733 mmHg 58%
    22:00 +29°C° 0 mm 1 mps 733 mmHg 60%
    23:00 +29°C° 0 mm 1 mps 733 mmHg 61%

    29 September, Friday

    Time Temperature Precipitation Wind Pressure Humidity
    00:00 +28°C° 0 mm 1 mps 732 mmHg 62%
    01:00 +28°C° 0 mm 1 mps 732 mmHg 63%
    02:00 +28°C° 0 mm 1 mps 731 mmHg 64%
    03:00 +27°C° 0 mm 1 mps 732 mmHg 65%
    04:00 +27°C° 0 mm 1 mps 732 mmHg 66%
    05:00 +27°C° 0 mm 1 mps 732 mmHg 67%
    06:00 +28°C° 0 mm 1 mps 733 mmHg 64%
    07:00 +30°C° 0 mm 1 mps 733 mmHg 62%
    08:00 +31°C° 0 mm 1 mps 734 mmHg 60%
    09:00 +33°C° 0 mm 1 mps 733 mmHg 55%
    10:00 +34°C° 0 mm 1 mps 733 mmHg 51%
    11:00 +36°C° 0 mm 1 mps 733 mmHg 47%
    12:00 +36°C° 0 mm 1 mps 732 mmHg 44%
    13:00 +37°C° 0 mm 1 mps 731 mmHg 42%
    14:00 +37°C° 0 mm 1 mps 731 mmHg 39%
    15:00 +36°C° 0 mm 1 mps 731 mmHg 44%
    16:00 +34°C° 0 mm 1 mps 731 mmHg 48%
    17:00 +33°C° 0 mm 1 mps 731 mmHg 52%
    18:00 +32°C° 0 mm 1 mps 732 mmHg 54%
    19:00 +31°C° 0 mm 1 mps 732 mmHg 55%
    20:00 +30°C° 0 mm 1 mps 733 mmHg 56%
    21:00 +30°C° 0 mm 1 mps 733 mmHg 57%
    22:00 +29°C° 0 mm 1 mps 733 mmHg 59%
    23:00 +29°C° 0 mm 1 mps 733 mmHg 60%

    30 September, Saturday

    Time Temperature Precipitation Wind Pressure Humidity
    00:00 +28°C° 0 mm 1 mps 733 mmHg 61%
    01:00 +28°C° 0 mm 1 mps 732 mmHg 62%
    02:00 +27°C° 0 mm 1 mps 732 mmHg 63%
    03:00 +27°C° 0 mm 1 mps 732 mmHg 64%
    04:00 +27°C° 0 mm 1 mps 733 mmHg 65%
    05:00 +26°C° 0 mm 1 mps 733 mmHg 67%
    06:00 +28°C° 0 mm 1 mps 734 mmHg 64%
    07:00 +29°C° 0 mm 1 mps 734 mmHg 62%
    08:00 +31°C° 0 mm 1 mps 735 mmHg 59%
    09:00 +33°C° 0 mm 1 mps 734 mmHg 56%
    10:00 +34°C° 0 mm 1 mps 734 mmHg 52%
    11:00 +36°C° 0 mm 1 mps 734 mmHg 48%
    12:00 +36°C° 0 mm 1 mps 733 mmHg 46%
    13:00 +36°C° 0 mm 1 mps 733 mmHg 43%
    14:00 +37°C° 0 mm 1 mps 732 mmHg 41%
    15:00 +36°C° 0 mm 1 mps 732 mmHg 46%
    16:00 +34°C° 0 mm 1 mps 732 mmHg 50%
    17:00 +33°C° 0 mm 1 mps 732 mmHg 55%
    18:00 +32°C° 0 mm 1 mps 733 mmHg 56%
    19:00 +32°C° 0 mm 1 mps 733 mmHg 56%
    20:00 +31°C° 0 mm 1 mps 734 mmHg 57%
    21:00 +30°C° 0 mm 1 mps 734 mmHg 60%
    22:00 +30°C° 0 mm 1 mps 734 mmHg 62%
    23:00 +29°C° 0 mm 2 mps 734 mmHg 64%
    Show more